Regional Weather Roundup
Issued by NWS

Home | Current Version | Previous Version | Text Only | Print | Product List | Glossary On
Versions: 1 2 3 4 5 6 7 8 9 10 11 12 13 14 15 16 17 18 19 20 21 22 23 24 25 26 27 28 29 30 31 32 33 34 35 36 37 38 39 40 41 42 43 44 45 46 47 48 49 50
000
ASUS43 KDMX 241506
RWRIA

WEATHER ROUNDUP FOR IOWA
NATIONAL WEATHER SERVICE DES MOINES IA
900 AM CST FRI NOV 24 2017

NOTE: "FAIR" INDICATES FEW OR NO CLOUDS BELOW 12,000 FEET WITH NO
SIGNIFICANT WEATHER AND/OR OBSTRUCTIONS TO VISIBILITY.

* - THESE STATIONS ARE NOT NWS STATIONS...THUS NOT UNDER NWS
QUALITY CONTROL.  THEY ALSO DO NOT REPORT WEATHER SUCH
AS PRECIPITATION OR FOG.

IAZ001>003-012>014-020>022-031>034-043>046-241600-
   NORTHWEST IOWA

CITY           SKY/WX    TMP DP  RH WIND       PRES   REMARKS
CARROLL *      SUNNY     54  41  62 SW18G26   29.46F
CHEROKEE *     SUNNY     48  42  80 SW9       29.45R
DENISON *      SUNNY     52  41  66 SW10      29.49S
LE MARS *      SUNNY     45  39  81 S8        29.45R
ORANGE CITY *  SUNNY     45  39  81 S8        29.43S
SHELDON *      SUNNY     45  39  81 SW8       29.42S
SIOUX CITY     SUNNY     41  37  86 E5        29.46S
SPENCER        SUNNY     46  39  76 SW10      29.42S
STORM LAKE *   SUNNY     48  41  76 SW21      29.44S
$$

IAZ055>058-069>071-079>083-090>094-241600-
   SOUTHWEST IOWA

CITY           SKY/WX    TMP DP  RH WIND       PRES   REMARKS
ATLANTIC *     SUNNY     52  41  66 S14       29.51F
AUDUBON *      SUNNY     52  41  66 S12       29.49F
CLARINDA *     SUNNY     54  39  58 S12         N/A
COUNCIL BLFS * SUNNY     52  43  71 SW13      29.51F
CRESTON *      SUNNY     52  37  58 SW21      29.55F
HARLAN  *      SUNNY     50  41  71 S12       29.53F
LAMONI         SUNNY     54  36  50 S18G25    29.58F
RED OAK *      SUNNY     52  41  66 S12       29.54F
SHENANDOAH *   SUNNY     55  39  54 SW17      29.56F
$$

IAZ047>049-059>061-072>074-084-241600-
   CENTRAL IOWA

CITY           SKY/WX    TMP DP  RH WIND       PRES   REMARKS
AMES           SUNNY     54  41  61 S12       29.49F
ANKENY *       SUNNY     55  37  50 SW13G20   29.52F
BOONE *        SUNNY     54  39  58 SW20      29.47F
CHARITON *     SUNNY     55  36  47 SW20      29.55F
DES MOINES     MOSUNNY   55  37  50 SW13      29.52F
GRINNELL*      SUNNY     52  37  56 S14       29.54F
KNOXVILLE *    SUNNY     55  34  44 S20G28    29.52F
MARSHALLTOWN   SUNNY     53  38  56 S14       29.50F
NEWTON *       SUNNY     55  37  50 SW14G20   29.53F
PELLA *        SUNNY     56  35  44 S15       29.55F
PERRY *          N/A     53  37  54 SW10      29.49F
$$

IAZ004>006-015-016-023>025-035-036-241600-
   NORTH CENTRAL IOWA

CITY           SKY/WX    TMP DP  RH WIND       PRES   REMARKS
ALGONA *       SUNNY     45  41  87 S13       29.43F
CLARION *      SUNNY     48  43  81 S14       29.44F
ESTHERVILLE    SUNNY     46  40  79 SW14      29.41S
FORT DODGE *   SUNNY     50  39  66 S12       29.45F
MASON CITY     SUNNY     47  38  71 SW12      29.46F
FOREST CITY *    N/A     48  37  66 S12       29.43F
WEBSTER CITY * SUNNY     52  39  62 SW17      29.44F
IOWA FALLS *     N/A     50  39  66 S13       29.48F
$$

IAZ007>011-017>019-026>030-037>042-050>054-066-241600-
   NORTHEAST IOWA

CITY           SKY/WX    TMP DP  RH WIND       PRES   REMARKS
CEDAR RAPIDS   SUNNY     52  37  56 S16       29.55F
CHARLES CITY * SUNNY     46  37  71 S12       29.48F
CLINTON *      SUNNY     49  36  61 S13       29.63F
DECORAH *      SUNNY     50  37  62 S10G16    29.47F
DUBUQUE        SUNNY     47  35  63 S16       29.56F
MONTICELLO *   SUNNY     50  36  57 S14       29.57F
OELWEIN *      SUNNY     48  39  71 S15       29.51F
WATERLOO       SUNNY     50  36  58 S12       29.49F
$$

IAZ064-065-067-068-078-241600-
   EAST CENTRAL IOWA

CITY           SKY/WX    TMP DP  RH WIND       PRES   REMARKS
DAVENPORT      SUNNY     50  34  54 S20       29.65F
IOWA CITY      SUNNY     52  36  54 S14       29.60F
MT. PLEASANT * SUNNY     49  35  57 S16       29.64F
MUSCATINE *    MIX PCPN  46  36  66 SE8       29.64F
QUAD CITIES    SUNNY     51  33  50 S12G20    29.64F
$$

IAZ062-063-075>077-085>089-095>099-241600-
   SOUTHEAST IOWA

CITY           SKY/WX    TMP DP  RH WIND       PRES   REMARKS
BURLINGTON     SUNNY     49  36  61 S14       29.66F
FAIRFIELD *    SUNNY     54  34  47 S15G21    29.59F
FORT MADISON * SUNNY     50  36  57 S17G23    29.67F
KEOKUK *       SUNNY     48  36  61 S14       29.67F
OSKALOOSA *      N/A     55  37  51 S17       29.56F
OTTUMWA        SUNNY     56  36  47 S16       29.58F
WASHINGTON *   SUNNY     52  36  54 S17G24    29.61F
$$

ABBREVIATIONS USED IN REMARKS
   TC - TEMPERATURES IN CELSIUS
  WCI - WIND CHILL INDEX
   HX - HEAT INDEX
  VSB - VISIBILITY
$$




USA.gov is the U.S. government's official web portal to all federal, state and local government web resources and services.